Location: Caltech
(34.1382°N, 118.1253°W)
Time: 17:13:38
(UTC-07:00)

Cosmos 2219 - Visible Passes

Search period start: 28 June 2016 00:00
Search period end: 08 July 2016 00:00
Orbit: 833 x 861 km, 71.1° (Epoch: 28 June)

Date Brightness Start Highest point End Pass type
(mag) Time Alt. Az. Time Alt. Az. Time Alt. Az.
28 Jun 3.4 21:02:37 10° S 21:08:09 51° ESE 21:13:42 10° NNE visible
28 Jun 5.7 22:48:25 10° WSW 22:52:34 20° WNW 22:56:45 10° N visible
29 Jun 3.4 20:49:13 10° S 20:54:42 50° ESE 21:00:14 10° NNE visible
29 Jun 5.7 22:34:53 10° WSW 22:39:06 21° WNW 22:43:21 10° N visible
30 Jun 3.5 20:35:47 10° S 20:41:17 48° ESE 20:46:47 10° NNE visible
30 Jun 5.7 22:21:23 10° WSW 22:25:39 21° WNW 22:29:57 10° N visible
01 Jul 5.7 22:07:52 10° WSW 22:12:12 22° WNW 22:16:33 10° N visible
02 Jul 5.7 21:54:21 10° WSW 21:58:44 22° WNW 22:03:09 10° N visible
03 Jul 6.8 05:09:51 10° NNE 05:11:59 12° NE 05:14:06 10° ENE visible
03 Jul 5.8 21:40:51 10° WSW 21:45:18 23° WNW 21:49:45 10° N visible
04 Jul 6.9 04:56:34 10° NNE 04:58:31 12° NE 05:00:28 10° ENE visible
04 Jul 5.8 21:27:21 10° WSW 21:31:50 23° WNW 21:36:20 10° N visible
05 Jul 6.9 04:43:16 10° NE 04:45:03 11° NE 04:46:49 10° ENE visible
05 Jul 5.8 21:13:50 10° WSW 21:18:23 24° WNW 21:22:57 10° N visible
06 Jul 6.9 04:30:02 10° NE 04:31:35 11° NE 04:33:08 10° ENE visible
06 Jul 5.9 21:00:20 10° WSW 21:04:56 24° WNW 21:09:32 10° N visible
07 Jul 6.8 04:16:48 10° NE 04:18:07 11° NE 04:19:26 10° ENE visible
07 Jul 5.9 20:46:50 10° WSW 20:51:28 25° WNW 20:56:08 10° N visible
